sat.trackr.live / text

‹ back to catalog

HAIYANG-2C

NORAD 46469 · 2020-066A

PAYLOAD ACTIVE UNKNOWN

§ Identity

Operator
Country
PRC
Launch date
2020-09-21
Launch site
JSC
Launch vehicle
Mass (kg)
RCS (m²)

External: N2YO · Heavens-Above · Gunter

§ Orbital elements

Epoch: 2026-05-25T04:13:30.295776Z

Period
104.09 min
Inclination
65.9976°
Eccentricity
0.0009747
Mean motion
13.83372747 rev/d
Perigee alt
944.8 km
Apogee alt
959.1 km
Semi-major
7,330.1 km
B*
7.5244e-5
RAAN
272.5757°
Arg perigee
239.1543°
Mean anomaly
120.8567°
Rev number
28,631

§ Raw data

HAIYANG-2C1 46469U 20066A   26145.17604509  .00000002  00000+0  75244-4 0  99902 46469  65.9976 272.5757 0009747 239.1543 120.8567 13.83372747286316

JSON: /api/v1/satellites/46469 · /tle

For live sub-satellite position, see the globe view (requires WebGL).

§ Visibility from observer

Set your observer location to see the next 7 days of passes ≥ 10°. The values pass through the URL so the page stays shareable.

No JS? Fill the form by hand. The geolocation button needs JavaScript.

§ Radio — SatNOGS DB

ModeDescriptionDownlinkUplink
BPSK BPSK 2.203 GHz
FM S-band telemetry 2.217 GHz

2 transmitters · refreshed weekly from db.satnogs.org